This is the latest recevied weather packets stored in our database for station/object EI4HQ. If no packets are shown the sender has not sent any weather packets the latest 10 day(s).
| Time | Temp. | Humidity | Pressure | Rain* | Wind** | Luminosity | Snow |
|---|---|---|---|---|---|---|---|
| 1777634283 | 11.67° C | 89% | 1018.5 hPa | 0 mm | - | - | - |
| 1777633743 | 11.67° C | 89% | 1018.7 hPa | 0 mm | - | - | - |
| 1777633203 | 11.67° C | 89% | 1018.6 hPa | 0 mm | - | - | - |
| 1777632843 | 11.67° C | 89% | 1018.6 hPa | 0 mm | - | - | - |
| 1777632303 | 12.22° C | 89% | 1018.6 hPa | 0 mm | - | - | - |
| 1777631763 | 12.22° C | 89% | 1018.5 hPa | 0 mm | - | - | - |
| 1777631223 | 11.67° C | 89% | 1018.6 hPa | 0 mm | - | - | - |
| 1777630683 | 11.67° C | 89% | 1018.5 hPa | 0 mm | - | - | - |
| 1777630143 | 11.67° C | 89% | 1018.5 hPa | 0 mm | - | - | - |
| 1777629603 | 11.67° C | 88% | 1018.4 hPa | 0 mm | - | - | - |
| 1777629243 | 12.22° C | 88% | 1018.5 hPa | 0 mm | - | - | - |
| 1777628703 | 12.78° C | 88% | 1018.3 hPa | 0.25 mm | - | - | - |
| 1777628163 | 12.78° C | 89% | 1018.3 hPa | 0.25 mm | - | - | - |
| 1777627623 | 12.22° C | 90% | 1018.3 hPa | 0.25 mm | - | - | - |
| 1777627083 | 12.22° C | 90% | 1018.2 hPa | 0.25 mm | - | - | - |
| 1777626543 | 12.22° C | 89% | 1018.2 hPa | 0.25 mm | - | - | - |
| 1777626003 | 12.78° C | 89% | 1018.1 hPa | 0.25 mm | - | - | - |
| 1777625643 | 12.78° C | 90% | 1018.1 hPa | 0.25 mm | - | - | - |
| 1777625103 | 12.22° C | 91% | 1018.1 hPa | 0 mm | - | - | - |
| 1777624563 | 11.67° C | 90% | 1018.1 hPa | 0 mm | - | - | - |
| 1777624023 | 11.67° C | 91% | 1018 hPa | 0 mm | - | - | - |
| 1777623483 | 11.67° C | 91% | 1018 hPa | 0 mm | - | - | - |
| 1777622943 | 11.11° C | 91% | 1018.1 hPa | 0 mm | - | - | - |
| 1777622403 | 11.11° C | 91% | 1018.1 hPa | 0 mm | - | - | - |
| 1777622043 | 11.67° C | 91% | 1018.1 hPa | 0 mm | - | - | - |
* Rain latest hour (hover to see other rain measurements)
** Current wind speed in m/s (hover to see current wind gust speed)